Year,Month,Day,Hour,Minute,Value (Times are PST for temperature in C)
2015,05,21,00,00,17.70
2015,05,21,00,01,17.60
2015,05,21,00,02,17.60
2015,05,21,00,03,17.50
2015,05,21,00,04,17.40
2015,05,21,00,05,17.40
2015,05,21,00,06,17.30
2015,05,21,00,07,17.30
2015,05,21,00,08,17.20
2015,05,21,00,09,17.20
2015,05,21,00,10,17.10
2015,05,21,00,11,17.10
2015,05,21,00,12,17.00
2015,05,21,00,13,17.00
2015,05,21,00,14,17.00
2015,05,21,00,15,16.90
2015,05,21,00,16,16.90
2015,05,21,00,17,16.80
2015,05,21,00,18,16.80
2015,05,21,00,19,16.80
2015,05,21,00,20,16.80
2015,05,21,00,21,16.70
2015,05,21,00,22,16.70
2015,05,21,00,23,16.60
2015,05,21,00,24,16.60
2015,05,21,00,25,16.50
2015,05,21,00,26,16.50
2015,05,21,00,27,16.40
2015,05,21,00,28,16.40
2015,05,21,00,29,16.30
2015,05,21,00,30,16.20
2015,05,21,00,31,16.20
2015,05,21,00,32,16.10
2015,05,21,00,33,16.10
2015,05,21,00,34,16.00
2015,05,21,00,35,16.00
2015,05,21,00,36,15.90
2015,05,21,00,37,15.90
2015,05,21,00,38,15.90
2015,05,21,00,39,15.80
2015,05,21,00,40,15.80
2015,05,21,00,41,15.70
2015,05,21,00,42,15.70
2015,05,21,00,43,15.60
2015,05,21,00,44,15.60
2015,05,21,00,45,15.60
2015,05,21,00,46,15.50
2015,05,21,00,47,15.50
2015,05,21,00,48,15.40
2015,05,21,00,49,15.40
2015,05,21,00,50,15.30
2015,05,21,00,51,15.30
2015,05,21,00,52,15.20
2015,05,21,00,53,15.20
2015,05,21,00,54,15.10
2015,05,21,00,55,15.10
2015,05,21,00,56,15.10
2015,05,21,00,57,15.10
2015,05,21,00,58,15.10
2015,05,21,00,59,15.00
2015,05,21,01,00,15.00
2015,05,21,01,01,15.00
2015,05,21,01,02,15.00
2015,05,21,01,03,15.10
2015,05,21,01,04,15.10
2015,05,21,01,05,15.10
2015,05,21,01,06,15.10
2015,05,21,01,07,15.10
2015,05,21,01,08,15.10
2015,05,21,01,09,15.10
2015,05,21,01,10,15.10
2015,05,21,01,11,15.10
2015,05,21,01,12,15.10
2015,05,21,01,13,15.10
2015,05,21,01,14,15.10
2015,05,21,01,15,15.10
2015,05,21,01,16,15.10
2015,05,21,01,17,15.10
2015,05,21,01,18,15.00
2015,05,21,01,19,15.00
2015,05,21,01,20,15.00
2015,05,21,01,21,15.00
2015,05,21,01,22,15.00
2015,05,21,01,23,14.90
2015,05,21,01,24,14.90
2015,05,21,01,25,14.90
2015,05,21,01,26,14.90
2015,05,21,01,27,14.90
2015,05,21,01,28,14.90
2015,05,21,01,29,14.80
2015,05,21,01,30,14.80
2015,05,21,01,31,14.80
2015,05,21,01,32,14.80
2015,05,21,01,33,14.80
2015,05,21,01,34,14.80
2015,05,21,01,35,14.80
2015,05,21,01,36,14.70
2015,05,21,01,37,14.70
2015,05,21,01,38,14.70
2015,05,21,01,39,14.70
2015,05,21,01,40,14.60
2015,05,21,01,41,14.60
2015,05,21,01,42,14.60
2015,05,21,01,43,14.50
2015,05,21,01,44,14.50
2015,05,21,01,45,14.40
2015,05,21,01,46,14.40
2015,05,21,01,47,14.40
2015,05,21,01,48,14.30
2015,05,21,01,49,14.30
2015,05,21,01,50,14.30
2015,05,21,01,51,14.30
2015,05,21,01,52,14.20
2015,05,21,01,53,14.20
2015,05,21,01,54,14.20
2015,05,21,01,55,14.10
2015,05,21,01,56,14.10
2015,05,21,01,57,14.10
2015,05,21,01,58,14.00
2015,05,21,01,59,14.00
2015,05,21,02,00,13.90
2015,05,21,02,01,13.90
2015,05,21,02,02,13.90
2015,05,21,02,03,13.80
2015,05,21,02,04,13.80
2015,05,21,02,05,13.80
2015,05,21,02,06,13.80
2015,05,21,02,07,13.80
2015,05,21,02,08,13.80
2015,05,21,02,09,13.70
2015,05,21,02,10,13.70
2015,05,21,02,11,13.70
2015,05,21,02,12,13.70
2015,05,21,02,13,13.70
2015,05,21,02,14,13.70
2015,05,21,02,15,13.70
2015,05,21,02,16,13.60
2015,05,21,02,17,13.60
2015,05,21,02,18,13.60
2015,05,21,02,19,13.60
2015,05,21,02,20,13.60
2015,05,21,02,21,13.60
2015,05,21,02,22,13.60
2015,05,21,02,23,13.60
2015,05,21,02,24,13.70
2015,05,21,02,25,13.80
2015,05,21,02,26,13.80
2015,05,21,02,27,13.90
2015,05,21,02,28,13.90
2015,05,21,02,29,14.00
2015,05,21,02,30,14.00
2015,05,21,02,31,14.10
2015,05,21,02,32,14.10
2015,05,21,02,33,14.10
2015,05,21,02,34,14.10
2015,05,21,02,35,14.10
2015,05,21,02,36,14.00
2015,05,21,02,37,14.00
2015,05,21,02,38,14.00
2015,05,21,02,39,13.90
2015,05,21,02,40,13.90
2015,05,21,02,41,13.90
2015,05,21,02,42,13.80
2015,05,21,02,43,13.80
2015,05,21,02,44,13.80
2015,05,21,02,45,13.80
2015,05,21,02,46,13.80
2015,05,21,02,47,13.80
2015,05,21,02,48,13.80
2015,05,21,02,49,13.80
2015,05,21,02,50,13.70
2015,05,21,02,51,13.70
2015,05,21,02,52,13.60
2015,05,21,02,53,13.60
2015,05,21,02,54,13.50
2015,05,21,02,55,13.50
2015,05,21,02,56,13.40
2015,05,21,02,57,13.30
2015,05,21,02,58,13.30
2015,05,21,02,59,13.30
2015,05,21,03,00,13.30
2015,05,21,03,01,13.30
2015,05,21,03,02,13.30
2015,05,21,03,03,13.20
2015,05,21,03,04,13.20
2015,05,21,03,05,13.20
2015,05,21,03,06,13.20
2015,05,21,03,07,13.30
2015,05,21,03,08,13.30
2015,05,21,03,09,13.30
2015,05,21,03,10,13.30
2015,05,21,03,11,13.40
2015,05,21,03,12,13.40
2015,05,21,03,13,13.50
2015,05,21,03,14,13.50
2015,05,21,03,15,13.70
2015,05,21,03,16,13.80
2015,05,21,03,17,13.90
2015,05,21,03,18,14.00
2015,05,21,03,19,14.00
2015,05,21,03,20,14.10
2015,05,21,03,21,14.10
2015,05,21,03,22,14.20
2015,05,21,03,23,14.20
2015,05,21,03,24,14.30
2015,05,21,03,25,14.30
2015,05,21,03,26,14.30
2015,05,21,03,27,14.30
2015,05,21,03,28,14.30
2015,05,21,03,29,14.30
2015,05,21,03,30,14.20
2015,05,21,03,31,14.20
2015,05,21,03,32,14.20
2015,05,21,03,33,14.20
2015,05,21,03,34,14.10
2015,05,21,03,35,14.10
2015,05,21,03,36,14.10
2015,05,21,03,37,14.10
2015,05,21,03,38,14.10
2015,05,21,03,39,14.00
2015,05,21,03,40,14.00
2015,05,21,03,41,13.90
2015,05,21,03,42,13.90
2015,05,21,03,43,13.80
2015,05,21,03,44,13.80
2015,05,21,03,45,13.80
2015,05,21,03,46,13.70
2015,05,21,03,47,13.70
2015,05,21,03,48,13.60
2015,05,21,03,49,13.60
2015,05,21,03,50,13.60
2015,05,21,03,51,13.50
2015,05,21,03,52,13.50
2015,05,21,03,53,13.40
2015,05,21,03,54,13.40
2015,05,21,03,55,13.40
2015,05,21,03,56,13.30
2015,05,21,03,57,13.30
2015,05,21,03,58,13.20
2015,05,21,03,59,13.20
2015,05,21,04,00,13.10
2015,05,21,04,01,13.10
2015,05,21,04,02,13.10
2015,05,21,04,03,13.00
2015,05,21,04,04,13.00
2015,05,21,04,05,12.90
2015,05,21,04,06,12.90
2015,05,21,04,07,12.80
2015,05,21,04,08,12.80
2015,05,21,04,09,12.80
2015,05,21,04,10,12.80
2015,05,21,04,11,12.70
2015,05,21,04,12,12.70
2015,05,21,04,13,12.70
2015,05,21,04,14,12.70
2015,05,21,04,15,12.60
2015,05,21,04,16,12.60
2015,05,21,04,17,12.60
2015,05,21,04,18,12.50
2015,05,21,04,19,12.50
2015,05,21,04,20,12.50
2015,05,21,04,21,12.40
2015,05,21,04,22,12.40
2015,05,21,04,23,12.40
2015,05,21,04,24,12.30
2015,05,21,04,25,12.30
2015,05,21,04,26,12.30
2015,05,21,04,27,12.30
2015,05,21,04,28,12.30
2015,05,21,04,29,12.30
2015,05,21,04,30,12.20
2015,05,21,04,31,12.20
2015,05,21,04,32,12.20
2015,05,21,04,33,12.20
2015,05,21,04,34,12.10
2015,05,21,04,35,12.10
2015,05,21,04,36,12.10
2015,05,21,04,37,12.00
2015,05,21,04,38,12.00
2015,05,21,04,39,12.00
2015,05,21,04,40,11.90
2015,05,21,04,41,11.90
2015,05,21,04,42,11.90
2015,05,21,04,43,11.90
2015,05,21,04,44,11.80
2015,05,21,04,45,11.80
2015,05,21,04,46,11.80
2015,05,21,04,47,11.80
2015,05,21,04,48,11.70
2015,05,21,04,49,11.70
2015,05,21,04,50,11.70
2015,05,21,04,51,11.70
2015,05,21,04,52,11.70
2015,05,21,04,53,11.60
2015,05,21,04,54,11.60
2015,05,21,04,55,11.60
2015,05,21,04,56,11.60
2015,05,21,04,57,11.60
2015,05,21,04,58,11.60
2015,05,21,04,59,11.60
2015,05,21,05,00,11.60
2015,05,21,05,01,11.50
2015,05,21,05,02,11.50
2015,05,21,05,03,11.50
2015,05,21,05,04,11.50
2015,05,21,05,05,11.50
2015,05,21,05,06,11.50
2015,05,21,05,07,11.40
2015,05,21,05,08,11.40
2015,05,21,05,09,11.40
2015,05,21,05,10,11.40
2015,05,21,05,11,11.40
2015,05,21,05,12,11.40
2015,05,21,05,13,11.40
2015,05,21,05,14,11.40
2015,05,21,05,15,11.30
2015,05,21,05,16,11.30
2015,05,21,05,17,11.30
2015,05,21,05,18,11.30
2015,05,21,05,19,11.30
2015,05,21,05,20,11.30
2015,05,21,05,21,11.30
2015,05,21,05,22,11.30
2015,05,21,05,23,11.30
2015,05,21,05,24,11.30
2015,05,21,05,25,11.30
2015,05,21,05,26,11.30
2015,05,21,05,27,11.20
2015,05,21,05,28,11.20
2015,05,21,05,29,11.20
2015,05,21,05,30,11.20
2015,05,21,05,31,11.20
2015,05,21,05,32,11.20
2015,05,21,05,33,11.20
2015,05,21,05,34,11.20
2015,05,21,05,35,11.30
2015,05,21,05,36,11.30
2015,05,21,05,37,11.30
2015,05,21,05,38,11.20
2015,05,21,05,39,11.20
2015,05,21,05,40,11.20
2015,05,21,05,41,11.20
2015,05,21,05,42,11.20
2015,05,21,05,43,11.20
2015,05,21,05,44,11.20
2015,05,21,05,45,11.20
2015,05,21,05,46,11.20
2015,05,21,05,47,11.20
2015,05,21,05,48,11.20
2015,05,21,05,49,11.20
2015,05,21,05,50,11.20
2015,05,21,05,51,11.20
2015,05,21,05,52,11.20
2015,05,21,05,53,11.20
2015,05,21,05,54,11.20
2015,05,21,05,55,11.10
2015,05,21,05,56,11.10
2015,05,21,05,57,11.10
2015,05,21,05,58,11.10
2015,05,21,05,59,11.10
2015,05,21,06,00,11.10
2015,05,21,06,01,11.10
2015,05,21,06,02,11.10
2015,05,21,06,03,11.10
2015,05,21,06,04,11.10
2015,05,21,06,05,11.10
2015,05,21,06,06,11.10
2015,05,21,06,07,11.00
2015,05,21,06,08,11.00
2015,05,21,06,09,11.00
2015,05,21,06,10,11.00
2015,05,21,06,11,11.00
2015,05,21,06,12,11.00
2015,05,21,06,13,11.00
2015,05,21,06,14,11.00
2015,05,21,06,15,11.00
2015,05,21,06,16,11.00
2015,05,21,06,17,11.00
2015,05,21,06,18,11.00
2015,05,21,06,19,11.00
2015,05,21,06,20,11.00
2015,05,21,06,21,11.00
2015,05,21,06,22,11.00
2015,05,21,06,23,11.00
2015,05,21,06,24,11.00
2015,05,21,06,25,11.00
2015,05,21,06,26,11.00
2015,05,21,06,27,11.00
2015,05,21,06,28,11.00
2015,05,21,06,29,11.00
2015,05,21,06,30,11.00
2015,05,21,06,31,11.00
2015,05,21,06,32,11.00
2015,05,21,06,33,11.00
2015,05,21,06,34,11.00
2015,05,21,06,35,11.10
2015,05,21,06,36,11.10
2015,05,21,06,37,11.10
2015,05,21,06,38,11.10
2015,05,21,06,39,11.10
2015,05,21,06,40,11.10
2015,05,21,06,41,11.10
2015,05,21,06,42,11.10
2015,05,21,06,43,11.10
2015,05,21,06,44,11.10
2015,05,21,06,45,11.20
2015,05,21,06,46,11.20
2015,05,21,06,47,11.20
2015,05,21,06,48,11.20
2015,05,21,06,49,11.20
2015,05,21,06,50,11.30
2015,05,21,06,51,11.30
2015,05,21,06,52,11.30
2015,05,21,06,53,11.30
2015,05,21,06,54,11.30
2015,05,21,06,55,11.30
2015,05,21,06,56,11.40
2015,05,21,06,57,11.40
2015,05,21,06,58,11.40
2015,05,21,06,59,11.40
2015,05,21,07,00,11.40
2015,05,21,07,01,11.50
2015,05,21,07,02,11.60
2015,05,21,07,03,11.60
2015,05,21,07,04,11.70
2015,05,21,07,05,11.80
2015,05,21,07,06,11.80
2015,05,21,07,07,11.90
2015,05,21,07,08,12.00
2015,05,21,07,09,12.10
2015,05,21,07,10,12.20
2015,05,21,07,11,12.30
2015,05,21,07,12,12.40
2015,05,21,07,13,12.50
2015,05,21,07,14,12.50
2015,05,21,07,15,12.70
2015,05,21,07,16,12.70
2015,05,21,07,17,12.80
2015,05,21,07,18,12.90
2015,05,21,07,19,13.00
2015,05,21,07,20,13.10
2015,05,21,07,21,13.20
2015,05,21,07,22,13.30
2015,05,21,07,23,13.40
2015,05,21,07,24,13.50
2015,05,21,07,25,13.60
2015,05,21,07,26,13.70
2015,05,21,07,27,13.80
2015,05,21,07,28,13.90
2015,05,21,07,29,14.00
2015,05,21,07,30,14.10
2015,05,21,07,31,14.20
2015,05,21,07,32,14.30
2015,05,21,07,33,14.40
2015,05,21,07,34,14.50
2015,05,21,07,35,14.70
2015,05,21,07,36,14.80
2015,05,21,07,37,14.90
2015,05,21,07,38,15.00
2015,05,21,07,39,15.10
2015,05,21,07,40,15.20
2015,05,21,07,41,15.30
2015,05,21,07,42,15.40
2015,05,21,07,43,15.40
2015,05,21,07,44,15.50
2015,05,21,07,45,15.60
2015,05,21,07,46,15.70
2015,05,21,07,47,15.70
2015,05,21,07,48,15.80
2015,05,21,07,49,15.90
2015,05,21,07,50,16.00
2015,05,21,07,51,16.00
2015,05,21,07,52,16.10
2015,05,21,07,53,16.20
2015,05,21,07,54,16.20
2015,05,21,07,55,16.30
2015,05,21,07,56,16.30
2015,05,21,07,57,16.40
2015,05,21,07,58,16.40
2015,05,21,07,59,16.50
2015,05,21,08,00,16.50
2015,05,21,08,01,16.50
2015,05,21,08,02,16.60
2015,05,21,08,03,16.60
2015,05,21,08,04,16.60
2015,05,21,08,05,16.70
2015,05,21,08,06,16.70
2015,05,21,08,07,16.80
2015,05,21,08,08,16.90
2015,05,21,08,09,17.00
2015,05,21,08,10,17.10
2015,05,21,08,11,17.10
2015,05,21,08,12,17.10
2015,05,21,08,13,17.10
2015,05,21,08,14,17.10
2015,05,21,08,15,17.00
2015,05,21,08,16,16.80
2015,05,21,08,17,16.70
2015,05,21,08,18,16.50
2015,05,21,08,19,16.30
2015,05,21,08,20,16.20
2015,05,21,08,21,16.00
2015,05,21,08,22,15.90
2015,05,21,08,23,15.90
2015,05,21,08,24,15.90
2015,05,21,08,25,15.90
2015,05,21,08,26,15.90
2015,05,21,08,27,15.90
2015,05,21,08,28,15.90
2015,05,21,08,29,15.80
2015,05,21,08,30,15.80
2015,05,21,08,31,15.80
2015,05,21,08,32,15.80
2015,05,21,08,33,15.80
2015,05,21,08,34,15.80
2015,05,21,08,35,15.90
2015,05,21,08,36,15.90
2015,05,21,08,37,16.00
2015,05,21,08,38,16.00
2015,05,21,08,39,16.00
2015,05,21,08,40,15.90
2015,05,21,08,41,15.90
2015,05,21,08,42,15.90
2015,05,21,08,43,15.80
2015,05,21,08,44,15.80
2015,05,21,08,45,15.90
2015,05,21,08,46,15.90
2015,05,21,08,47,15.90
2015,05,21,08,48,15.90
2015,05,21,08,49,15.90
2015,05,21,08,50,16.00
2015,05,21,08,51,16.00
2015,05,21,08,52,16.00
2015,05,21,08,53,16.10
2015,05,21,08,54,16.10
2015,05,21,08,55,16.10
2015,05,21,08,56,16.20
2015,05,21,08,57,16.20
2015,05,21,08,58,16.20
2015,05,21,08,59,16.30
2015,05,21,09,00,16.30
2015,05,21,09,01,16.30
2015,05,21,09,02,16.30
2015,05,21,09,03,16.30
2015,05,21,09,04,16.30
2015,05,21,09,05,16.30
2015,05,21,09,06,16.30
2015,05,21,09,07,16.30
2015,05,21,09,08,16.30
2015,05,21,09,09,16.30
2015,05,21,09,10,16.30
2015,05,21,09,11,16.30
2015,05,21,09,12,16.40
2015,05,21,09,13,16.50
2015,05,21,09,14,16.50
2015,05,21,09,15,16.60
2015,05,21,09,16,16.70
2015,05,21,09,17,16.80
2015,05,21,09,18,16.80
2015,05,21,09,19,16.90
2015,05,21,09,20,17.00
2015,05,21,09,21,17.10
2015,05,21,09,22,17.20
2015,05,21,09,23,17.30
2015,05,21,09,24,17.50
2015,05,21,09,25,17.60
2015,05,21,09,26,17.80
2015,05,21,09,27,17.90
2015,05,21,09,28,18.10
2015,05,21,09,29,18.20
2015,05,21,09,30,18.30
2015,05,21,09,31,18.40
2015,05,21,09,32,18.50
2015,05,21,09,33,18.60
2015,05,21,09,34,18.70
2015,05,21,09,35,18.80
2015,05,21,09,36,18.80
2015,05,21,09,37,18.90
2015,05,21,09,38,19.00
2015,05,21,09,39,19.10
2015,05,21,09,40,19.30
2015,05,21,09,41,19.40
2015,05,21,09,42,19.50
2015,05,21,09,43,19.60
2015,05,21,09,44,19.60
2015,05,21,09,45,19.60
2015,05,21,09,46,19.70
2015,05,21,09,47,19.70
2015,05,21,09,48,19.70
2015,05,21,09,49,19.70
2015,05,21,09,50,19.70
2015,05,21,09,51,19.70
2015,05,21,09,52,19.70
2015,05,21,09,53,19.60
2015,05,21,09,54,19.60
2015,05,21,09,55,19.60
2015,05,21,09,56,19.60
2015,05,21,09,57,19.70
2015,05,21,09,58,19.80
2015,05,21,09,59,19.80
2015,05,21,10,00,19.80
2015,05,21,10,01,19.80
2015,05,21,10,02,19.80
2015,05,21,10,03,19.70
2015,05,21,10,04,19.70
2015,05,21,10,05,19.60
2015,05,21,10,06,19.60
2015,05,21,10,07,19.60
2015,05,21,10,08,19.60
2015,05,21,10,09,19.60
2015,05,21,10,10,19.70
2015,05,21,10,11,19.80
2015,05,21,10,12,19.80
2015,05,21,10,13,19.90
2015,05,21,10,14,20.00
2015,05,21,10,15,20.00
2015,05,21,10,16,20.10
2015,05,21,10,17,20.20
2015,05,21,10,18,20.30
2015,05,21,10,19,20.40
2015,05,21,10,20,20.50
2015,05,21,10,21,20.60
2015,05,21,10,22,20.50
2015,05,21,10,23,20.30
2015,05,21,10,24,20.10
2015,05,21,10,25,19.90
2015,05,21,10,26,19.60
2015,05,21,10,27,19.30
2015,05,21,10,28,19.10
2015,05,21,10,29,18.90
2015,05,21,10,30,18.70
2015,05,21,10,31,18.60
2015,05,21,10,32,18.50
2015,05,21,10,33,18.40
2015,05,21,10,34,18.20
2015,05,21,10,35,18.10
2015,05,21,10,36,18.00
2015,05,21,10,37,18.00
2015,05,21,10,38,18.00
2015,05,21,10,39,18.10
2015,05,21,10,40,18.20
2015,05,21,10,41,18.30
2015,05,21,10,42,18.40
2015,05,21,10,43,18.50
2015,05,21,10,44,18.60
2015,05,21,10,45,18.70
2015,05,21,10,46,18.70
2015,05,21,10,47,18.80
2015,05,21,10,48,19.00
2015,05,21,10,49,19.00
2015,05,21,10,50,19.10
2015,05,21,10,51,19.10
2015,05,21,10,52,19.10
2015,05,21,10,53,19.10
2015,05,21,10,54,19.10
2015,05,21,10,55,19.20
2015,05,21,10,56,19.20
2015,05,21,10,57,19.20
2015,05,21,10,58,19.20
2015,05,21,10,59,19.20
2015,05,21,11,00,19.30
2015,05,21,11,01,19.30
2015,05,21,11,02,19.30
2015,05,21,11,03,19.30
2015,05,21,11,04,19.30
2015,05,21,11,05,19.40
2015,05,21,11,06,19.40
2015,05,21,11,07,19.40
2015,05,21,11,08,19.40
2015,05,21,11,09,19.40
2015,05,21,11,10,19.30
2015,05,21,11,11,19.30
2015,05,21,11,12,19.30
2015,05,21,11,13,19.40
2015,05,21,11,14,19.40
2015,05,21,11,15,19.50
2015,05,21,11,16,19.50
2015,05,21,11,17,19.60
2015,05,21,11,18,19.60
2015,05,21,11,19,19.60
2015,05,21,11,20,19.60
2015,05,21,11,21,19.60
2015,05,21,11,22,19.70
2015,05,21,11,23,19.70
2015,05,21,11,24,19.60
2015,05,21,11,25,19.60
2015,05,21,11,26,19.60
2015,05,21,11,27,19.60
2015,05,21,11,28,19.60
2015,05,21,11,29,19.60
2015,05,21,11,30,19.50
2015,05,21,11,31,19.50
2015,05,21,11,32,19.50
2015,05,21,11,33,19.50
2015,05,21,11,34,19.60
2015,05,21,11,35,19.60
2015,05,21,11,36,19.70
2015,05,21,11,37,19.80
2015,05,21,11,38,19.80
2015,05,21,11,39,19.80
2015,05,21,11,40,19.90
2015,05,21,11,41,20.10
2015,05,21,11,42,20.20
2015,05,21,11,43,20.30
2015,05,21,11,44,20.40
2015,05,21,11,45,20.40
2015,05,21,11,46,20.50
2015,05,21,11,47,20.50
2015,05,21,11,48,20.60
2015,05,21,11,49,20.60
2015,05,21,11,50,20.60
2015,05,21,11,51,20.50
2015,05,21,11,52,20.40
2015,05,21,11,53,20.50
2015,05,21,11,54,20.50
2015,05,21,11,55,20.40
2015,05,21,11,56,20.30
2015,05,21,11,57,20.30
2015,05,21,11,58,20.30
2015,05,21,11,59,20.40
2015,05,21,12,00,20.40
2015,05,21,12,01,20.50
2015,05,21,12,02,20.50
2015,05,21,12,03,20.60
2015,05,21,12,04,20.70
2015,05,21,12,05,20.70
2015,05,21,12,06,20.60
2015,05,21,12,07,20.60
2015,05,21,12,08,20.60
2015,05,21,12,09,20.50
2015,05,21,12,10,20.50
2015,05,21,12,11,20.50
2015,05,21,12,12,20.40
2015,05,21,12,13,20.30
2015,05,21,12,14,20.30
2015,05,21,12,15,20.40
2015,05,21,12,16,20.50
2015,05,21,12,17,20.50
2015,05,21,12,18,20.40
2015,05,21,12,19,20.30
2015,05,21,12,20,20.30
2015,05,21,12,21,20.30
2015,05,21,12,22,20.30
2015,05,21,12,23,20.40
2015,05,21,12,24,20.40
2015,05,21,12,25,20.50
2015,05,21,12,26,20.60
2015,05,21,12,27,20.70
2015,05,21,12,28,20.70
2015,05,21,12,29,20.60
2015,05,21,12,30,20.60
2015,05,21,12,31,20.50
2015,05,21,12,32,20.40
2015,05,21,12,33,20.40
2015,05,21,12,34,20.50
2015,05,21,12,35,20.60
2015,05,21,12,36,20.70
2015,05,21,12,37,20.80
2015,05,21,12,38,20.90
2015,05,21,12,39,20.90
2015,05,21,12,40,20.80
2015,05,21,12,41,20.80
2015,05,21,12,42,20.80
2015,05,21,12,43,20.70
2015,05,21,12,44,20.60
2015,05,21,12,45,20.50
2015,05,21,12,46,20.30
2015,05,21,12,47,20.30
2015,05,21,12,48,20.30
2015,05,21,12,49,20.30
2015,05,21,12,50,20.50
2015,05,21,12,51,20.60
2015,05,21,12,52,20.70
2015,05,21,12,53,20.80
2015,05,21,12,54,20.90
2015,05,21,12,55,21.00
2015,05,21,12,56,21.10
2015,05,21,12,57,21.20
2015,05,21,12,58,21.30
2015,05,21,12,59,21.40
2015,05,21,13,00,21.50
2015,05,21,13,01,21.60
2015,05,21,13,02,21.70
2015,05,21,13,03,21.70
2015,05,21,13,04,21.70
2015,05,21,13,05,21.80
2015,05,21,13,06,21.90
2015,05,21,13,07,21.90
2015,05,21,13,08,22.00
2015,05,21,13,09,22.00
2015,05,21,13,10,22.00
2015,05,21,13,11,22.00
2015,05,21,13,12,22.10
2015,05,21,13,13,22.00
2015,05,21,13,14,22.00
2015,05,21,13,15,22.00
2015,05,21,13,16,22.00
2015,05,21,13,17,22.10
2015,05,21,13,18,22.10
2015,05,21,13,19,22.10
2015,05,21,13,20,22.10
2015,05,21,13,21,22.20
2015,05,21,13,22,22.30
2015,05,21,13,23,22.30
2015,05,21,13,24,22.40
2015,05,21,13,25,22.50
2015,05,21,13,26,22.60
2015,05,21,13,27,22.70
2015,05,21,13,28,22.70
2015,05,21,13,29,22.80
2015,05,21,13,30,22.80
2015,05,21,13,31,22.90
2015,05,21,13,32,22.90
2015,05,21,13,33,23.00
2015,05,21,13,34,23.20
2015,05,21,13,35,23.30
2015,05,21,13,36,23.50
2015,05,21,13,37,23.60
2015,05,21,13,38,23.80
2015,05,21,13,39,23.80
2015,05,21,13,40,23.90
2015,05,21,13,41,23.90
2015,05,21,13,42,23.80
2015,05,21,13,43,23.80
2015,05,21,13,44,23.70
2015,05,21,13,45,23.60
2015,05,21,13,46,23.50
2015,05,21,13,47,23.50
2015,05,21,13,48,23.40
2015,05,21,13,49,23.40
2015,05,21,13,50,23.40
2015,05,21,13,51,23.30
2015,05,21,13,52,23.30
2015,05,21,13,53,23.30
2015,05,21,13,54,23.20
2015,05,21,13,55,23.10
2015,05,21,13,56,23.10
2015,05,21,13,57,23.10
2015,05,21,13,58,23.10
2015,05,21,13,59,23.10
2015,05,21,14,00,23.00
2015,05,21,14,01,22.90
2015,05,21,14,02,22.90
2015,05,21,14,03,22.90
2015,05,21,14,04,23.00
2015,05,21,14,05,23.10
2015,05,21,14,06,23.10
2015,05,21,14,07,23.10
2015,05,21,14,08,23.20
2015,05,21,14,09,23.20
2015,05,21,14,10,23.20
2015,05,21,14,11,23.30
2015,05,21,14,12,23.40
2015,05,21,14,13,23.50
2015,05,21,14,14,23.50
2015,05,21,14,15,23.60
2015,05,21,14,16,23.60
2015,05,21,14,17,23.60
2015,05,21,14,18,23.60
2015,05,21,14,19,23.60
2015,05,21,14,20,23.60
2015,05,21,14,21,23.60
2015,05,21,14,22,23.70
2015,05,21,14,23,23.70
2015,05,21,14,24,23.80
2015,05,21,14,25,23.80
2015,05,21,14,26,23.90
2015,05,21,14,27,24.00
2015,05,21,14,28,24.10
2015,05,21,14,29,24.10
2015,05,21,14,30,24.10
2015,05,21,14,31,24.10
2015,05,21,14,32,24.00
2015,05,21,14,33,24.10
2015,05,21,14,34,24.10
2015,05,21,14,35,24.10
2015,05,21,14,36,24.20
2015,05,21,14,37,24.20
2015,05,21,14,38,24.30
2015,05,21,14,39,24.30
2015,05,21,14,40,24.40
2015,05,21,14,41,24.40
2015,05,21,14,42,24.50
2015,05,21,14,43,24.40
2015,05,21,14,44,24.40
2015,05,21,14,45,24.40
2015,05,21,14,46,24.40
2015,05,21,14,47,24.30
2015,05,21,14,48,24.30
2015,05,21,14,49,24.40
2015,05,21,14,50,24.40
2015,05,21,14,51,24.40
2015,05,21,14,52,24.40
2015,05,21,14,53,24.50
2015,05,21,14,54,24.50
2015,05,21,14,55,24.50
2015,05,21,14,56,24.50
2015,05,21,14,57,24.60
2015,05,21,14,58,24.70
2015,05,21,14,59,24.70
2015,05,21,15,00,24.80
2015,05,21,15,01,24.90
2015,05,21,15,02,25.00
2015,05,21,15,03,25.10
2015,05,21,15,04,25.10
2015,05,21,15,05,25.20
2015,05,21,15,06,25.20
2015,05,21,15,07,25.30
2015,05,21,15,08,25.40
2015,05,21,15,09,25.50
2015,05,21,15,10,25.60
2015,05,21,15,11,25.70
2015,05,21,15,12,25.90
2015,05,21,15,13,26.00
2015,05,21,15,14,26.10
2015,05,21,15,15,26.10
2015,05,21,15,16,26.20
2015,05,21,15,17,26.20
2015,05,21,15,18,26.20
2015,05,21,15,19,26.20
2015,05,21,15,20,26.20
2015,05,21,15,21,26.20
2015,05,21,15,22,26.10
2015,05,21,15,23,26.10
2015,05,21,15,24,26.10
2015,05,21,15,25,26.20
2015,05,21,15,26,26.20
2015,05,21,15,27,26.20
2015,05,21,15,28,26.20
2015,05,21,15,29,26.20
2015,05,21,15,30,26.20
2015,05,21,15,31,26.20
2015,05,21,15,32,26.20
2015,05,21,15,33,26.30
2015,05,21,15,34,26.20
2015,05,21,15,35,26.20
2015,05,21,15,36,26.20
2015,05,21,15,37,26.20
2015,05,21,15,38,26.30
2015,05,21,15,39,26.30
2015,05,21,15,40,26.30
2015,05,21,15,41,26.30
2015,05,21,15,42,26.30
2015,05,21,15,43,26.40
2015,05,21,15,44,26.40
2015,05,21,15,45,26.50
2015,05,21,15,46,26.50
2015,05,21,15,47,26.60
2015,05,21,15,48,26.70
2015,05,21,15,49,26.70
2015,05,21,15,50,26.80
2015,05,21,15,51,26.90
2015,05,21,15,52,27.00
2015,05,21,15,53,27.10
2015,05,21,15,54,27.20
2015,05,21,15,55,27.30
2015,05,21,15,56,27.30
2015,05,21,15,57,27.40
2015,05,21,15,58,27.40
2015,05,21,15,59,27.50
2015,05,21,16,00,27.50
2015,05,21,16,01,27.50
2015,05,21,16,02,27.50
2015,05,21,16,03,27.50
2015,05,21,16,04,27.60
2015,05,21,16,05,27.60
2015,05,21,16,06,27.60
2015,05,21,16,07,27.60
2015,05,21,16,08,27.60
2015,05,21,16,09,27.60
2015,05,21,16,10,27.60
2015,05,21,16,11,27.50
2015,05,21,16,12,27.50
2015,05,21,16,13,27.40
2015,05,21,16,14,27.30
2015,05,21,16,15,27.10
2015,05,21,16,16,27.00
2015,05,21,16,17,26.90
2015,05,21,16,18,26.90
2015,05,21,16,19,26.80
2015,05,21,16,20,26.90
2015,05,21,16,21,27.00
2015,05,21,16,22,27.00
2015,05,21,16,23,27.10
2015,05,21,16,24,27.10
2015,05,21,16,25,26.90
2015,05,21,16,26,26.80
2015,05,21,16,27,26.70
2015,05,21,16,28,26.70
2015,05,21,16,29,26.80
2015,05,21,16,30,26.80
2015,05,21,16,31,26.90
2015,05,21,16,32,26.90
2015,05,21,16,33,26.90
2015,05,21,16,34,26.80
2015,05,21,16,35,26.80
2015,05,21,16,36,26.80
2015,05,21,16,37,26.80
2015,05,21,16,38,26.90
2015,05,21,16,39,26.90
2015,05,21,16,40,26.90
2015,05,21,16,41,26.90
2015,05,21,16,42,27.00
2015,05,21,16,43,27.00
2015,05,21,16,44,27.10
2015,05,21,16,45,27.10
2015,05,21,16,46,27.10
2015,05,21,16,47,27.20
2015,05,21,16,48,27.20
2015,05,21,16,49,27.30
2015,05,21,16,50,27.30
2015,05,21,16,51,27.30
2015,05,21,16,52,27.30
2015,05,21,16,53,27.30
2015,05,21,16,54,27.40
2015,05,21,16,55,27.40
2015,05,21,16,56,27.40
2015,05,21,16,57,27.40
2015,05,21,16,58,27.40
2015,05,21,16,59,27.40
2015,05,21,17,00,27.30
2015,05,21,17,01,27.30
2015,05,21,17,02,27.30
2015,05,21,17,03,27.30
2015,05,21,17,04,27.30
2015,05,21,17,05,27.30
2015,05,21,17,06,27.40
2015,05,21,17,07,27.50
2015,05,21,17,08,27.50
2015,05,21,17,09,27.60
2015,05,21,17,10,27.60
2015,05,21,17,11,27.60
2015,05,21,17,12,27.60
2015,05,21,17,13,27.70
2015,05,21,17,14,27.80
2015,05,21,17,15,27.80
2015,05,21,17,16,27.80
2015,05,21,17,17,27.80
2015,05,21,17,18,27.80
2015,05,21,17,19,27.80